Location: Brachbach
(49.1847°N, 9.7240°E)
Time: 06:26:04
(UTC+00:00)

PCSat - Pass Details

Date: 18 March 2026
Orbit: 780 x 790 km, 67.1° (Epoch: 13 April)

Event Time Altitude Azimuth Distance (km) Brightness Sun altitude
Exits shadow 22:23:14 14° 23° (NNE) 2,097 12.1 -39.5°
Drops below altitude 10° 22:24:00 10° 26° (NNE) 2,364 12.4 -39.5°
Sets 22:26:34 0° 34° (NE) 3,296 13.2 -39.7°
